This is the latest recevied weather packets stored in our database for station/object UR7D-10. If no packets are shown the sender has not sent any weather packets the latest 1 day(s).
| Time | Temp. | Humidity | Pressure | Rain* | Wind** | Luminosity | Snow |
|---|---|---|---|---|---|---|---|
| 1836274356 | 13.89° C | 91% | 1028 hPa | 0 mm | 0 m/s | - | - |
| 1778040447 | 12.22° C | 64% | 1012.6 hPa | 0 mm | 0 m/s | - | - |
| 1778036844 | 12.22° C | 66% | 1012.1 hPa | 0 mm | 0 m/s | - | - |
| 1778033240 | 12.78° C | 63% | 1012 hPa | 0 mm | 0 m/s | - | - |
| 1778029637 | 13.89° C | 56% | 1011.5 hPa | 0 mm | 0 m/s | - | - |
| 1778026033 | 15.56° C | 51% | 1011.4 hPa | 0 mm | 0.45 m/s, 71° | - | - |
| 1778022430 | 16.11° C | 49% | 1011.6 hPa | 0 mm | 0 m/s | - | - |
| 1778015223 | 21.11° C | 34% | 1011.8 hPa | 0 mm | 0.45 m/s, 165° | - | - |
| 1778011620 | 22.22° C | 35% | 1011.7 hPa | 0 mm | 0.45 m/s, 91° | - | - |
| 1778008016 | 22.78° C | 36% | 1011.7 hPa | 0 mm | 0.45 m/s, 112° | - | - |
| 1778004413 | 23.33° C | 34% | 1011.6 hPa | 0 mm | 0.45 m/s, 104° | - | - |
| 1778000811 | 26.11° C | 30% | 1011.5 hPa | 0 mm | 0.89 m/s, 256° | - | - |
| 1777993604 | 27.78° C | 26% | 1012.4 hPa | 0 mm | 1.79 m/s, 252° | - | - |
| 1777990000 | 27.22° C | 25% | 1013.1 hPa | 0 mm | 2.24 m/s, 149° | - | - |
| 1777986397 | 26.11° C | 26% | 1013.7 hPa | 0 mm | 1.34 m/s, 291° | - | - |
| 1777982797 | 26.11° C | 28% | 1014.5 hPa | 0 mm | 1.34 m/s, 160° | - | - |
| 1777971982 | 22.78° C | 33% | 1015.8 hPa | 0 mm | 0.89 m/s, 210° | - | - |
| 1777968379 | 21.67° C | 40% | 1015.8 hPa | 0 mm | 0 m/s | - | - |
| 1777964775 | 17.22° C | 50% | 1016.4 hPa | 0 mm | 0 m/s | - | - |
| 1777961171 | 13.33° C | 59% | 1016.4 hPa | 0 mm | 0 m/s | - | - |
| 1777957568 | 10.56° C | 67% | 1016.3 hPa | 0 mm | 0 m/s | - | - |
* Rain latest hour (hover to see other rain measurements)
** Current wind speed in m/s (hover to see current wind gust speed)